Regional Weather Roundup
Issued by NWS

Home | Current Version | Previous Version | Graphics & Text | Print | Product List | Glossary Off
Versions: 1 2 3 4 5 6 7 8 9 10 11 12 13 14 15 16 17 18 19 20 21 22 23 24 25 26 27 28 29 30 31 32 33 34 35 36 37 38 39 40 41 42 43 44 45 46 47 48 49 50

000
ASUS43 KMKX 050111
RWRWI

WISCONSIN REGIONAL WEATHER ROUNDUP
NATIONAL WEATHER SERVICE MILWAUKEE/SULLIVAN WI
800 PM CDT MON MAY 04 2015

NOTE: "FAIR" INDICATES FEW OR NO CLOUDS BELOW 12,000 FEET WITH NO
SIGNIFICANT WEATHER AND/OR OBSTRUCTIONS TO VISIBILITY.

WIZ001-002-006>008-014>016-023>028-050200-
NORTHWEST WISCONSIN

CITY           SKY/WX    TMP DP  RH WIND       PRES   REMARKS
SUPERIOR ARPT  PTCLDY    61  23  22 CALM      30.19R
ASHLAND        PTCLDY    60  27  28 E3        30.20S
HAYWARD        PTCLDY    62  22  21 N3        30.19S
SIREN          PTCLDY    63  21  20 N3        30.19R
CUMBERLAND     MOCLDY    63  27  25 CALM      30.18S
RICE LAKE      MOCLDY    62  30  29 N3        30.19S
CHETEK         MOCLDY    61  35  37 CALM      30.18R
LADYSMITH      MOCLDY    64  27  24 N5        30.19S
EAU CLAIRE     CLOUDY    64  33  31 CALM      30.16S
MENOMONIE      CLOUDY    66  28  23 CALM      30.17S
NEW RICHMOND   MOCLDY    66  27  23 CALM      30.18R
OSCEOLA        MOCLDY    65  29  25 N5        30.20R
$$

WIZ003>005-009-010-017-018-050200-
NORTH CENTRAL WISCONSIN

CITY           SKY/WX    TMP DP  RH WIND       PRES   REMARKS
MANITOWISH WTR PTCLDY    57  19  23 N3        30.22S
ARBOR VITAE    PTCLDY    57  19  22 N5        30.22R
WOODRUFF       PTCLDY    57  19  22 N5        30.22R
RHINELANDER    MOCLDY    61  23  23 N3        30.20R
EAGLE RIVER    PTCLDY    59  18  20 CALM      30.21R
LAND O LAKES   PTCLDY    57  25  29 NE5       30.22S
PHILLIPS       PTCLDY    58  23  26 NE6       30.20R
TOMAHAWK       MOCLDY    61  25  25 CALM      30.20R
MEDFORD        MOCLDY    60  32  35 CALM      30.18S
MERRILL        CLOUDY    63  31  30 NE5       30.18R
$$

WIZ029-030-035-036-043>047-050200-
CENTRAL WISCONSIN

CITY           SKY/WX    TMP DP  RH WIND       PRES   REMARKS
WAUSAU         MOCLDY    65  29  25 N5        30.16R
MOSINEE        NOT AVBL
MARSHFIELD     CLOUDY    65  38  36 CALM      30.16S
STEVENS POINT  CLOUDY    62  35  37 N5        30.16S
WAUPACA        MOCLDY    64  42  44 E20       30.16R
WAUTOMA        CLOUDY    68  41  37 CALM      30.15R
WISC RAPIDS    CLOUDY    61  38  42 N3        30.16S
CAMP DOUGLAS   MOCLDY    64  37  36 N5        30.14R
$$

WIZ011>013-019>022-031-037>040-048>050-050200-
NORTHEAST WISCONSIN

CITY           SKY/WX    TMP DP  RH WIND       PRES   REMARKS
ANTIGO         CLOUDY    61  42  49 CALM      30.19R
SHAWANO        MOCLDY    59  41  51 SE5       30.19S
OCONTO         MOCLDY    54  41  62 E5        30.21R
STURGEON BAY   MOCLDY    52  36  54 E8        30.24R
GREEN BAY      MOCLDY    58  40  51 E7        30.20R
MANITOWOC      MOCLDY    56  38  50 E6        30.21R
APPLETON       MOCLDY    61  36  39 SE10      30.18R
CLINTONVILLE   MOCLDY    59  39  47 E8        30.18R
OSHKOSH        CLOUDY    59  42  53 E13       30.17R
$$

WIZ032>034-041-042-053>061-050200-
SOUTHWEST WISCONSIN

CITY           SKY/WX    TMP DP  RH WIND       PRES   REMARKS
LA CROSSE      CLOUDY    66  42  41 N9        30.12F
SPARTA         CLOUDY    64  34  32 N5        30.15S
VIROQUA        CLOUDY    63  44  49 NE3       30.14S
BOSCOBEL       CLOUDY    70  49  47 CALM      30.11S
PRAIRIE DU CHI CLOUDY    70  45  41 NE3       30.10S
PLATTEVILLE    CLOUDY    68  56  66 E7        30.12R
$$

WIZ056-057-062-063-064-067-068-050200-
SOUTH CENTRAL WISCONSIN

CITY           SKY/WX    TMP DP  RH WIND       PRES   REMARKS
REEDSBURG      MOCLDY    67  43  41 NE3       30.13R
BARABOO/DELLS  MOCLDY    64  48  55 CALM      30.13S
LONE ROCK      CLOUDY    68  56  65 NE3       30.11S
MINERAL POINT  CLOUDY    68  54  60 E5        30.13R
MADISON        MOCLDY    66  47  50 SE13      30.14R
MIDDLETON      MOCLDY    68  53  58 E12G17    30.14R
WATERTOWN      MOCLDY    60  36  40 E9        30.16R
MONROE         CLOUDY    66  57  72 E10G16    30.13R
JANESVILLE     MOCLDY    64  45  48 E14       30.15R
$$

WIZ051-052-058>065-066-070>072-050200-
SOUTHEAST WISCONSIN

CITY           SKY/WX    TMP DP  RH WIND       PRES   REMARKS
MILWAUKEE      MOCLDY    51  37  58 N6        30.18R
WAUKESHA       CLEAR     57  36  44 NE9       30.19R
MILWAUKEE/TIMM NOT AVBL
RACINE         PTCLDY    51  37  58 NE7       30.19R
BURLINGTON     MOCLDY    56  38  50 E6        30.18R
KENOSHA        MOCLDY    54  39  57 E6        30.18R
FOND DU LAC    CLOUDY    59  38  45 E8        30.17R
SHEBOYGAN      CLOUDY    51  38  60 NE6       30.20R
WEST BEND      MOCLDY    54  36  50 E5        30.19R
JUNEAU         MOCLDY    60  40  47 E7        30.18R
$$

LSZ147-162-050200-
LAKE SUPERIOR

STATION/POSITION TIME  TEMP    WIND        PRES    WAVE
                       AIR SEA DIR/SP/G            HT/PER
                 (UTC) (F)     (DEG/KT/KT) (MB)    (FT/S)
W MID LAKE BUOY  0050   41 36  210/  8/  8 1023.3R   0
DEVILS ISLAND    0100   58     170/  9/ 10 1023.0R
PORT WING        0100   55      50/  5/ 10 1022.4S
SAXON HARBOR     0040   58        CALM     1022.4S
$$

LMZ867-665-643>646-050200-
LAKE MICHIGAN

STATION/POSITION TIME  TEMP    WIND        PRES    WAVE
                       AIR SEA DIR/SP/G            HT/PER
                 (UTC) (F)     (DEG/KT/KT) (MB)    (FT/S)
CHAMBERS ISLAND  0000   57      80/  7/ 10 1022.7R
NORTHPORT PIER   0000   50     150/  6/  7 1022.7R
SISTER BAY       2332   57     110/  9/ 14   N/A
KEWAUNEE LAKESHO 0000   48      CALM  /  3 1022.0R
SHEBOYGAN LAKESH 0100   49      10/  8/  9 1022.8R
PORT WASHINGTON  0040   55     360/  3/  7 1022.7R
ATWATER BUOY     0000   49     350/  6/  8 1023.0S
MILWAUKEE LAKESH 0000   53      30/  8/  9   N/A
KENOSHA   LAKESH 0100   49      40/  2/  3 1022.0R
$$

TC  - TEMPERATURE IN CELSIUS
VSB - VISIBILITY IN STATUTE MILES
WCI - WIND CHILL INDEX
HX  - HEAT INDEX




USA.gov is the U.S. government's official web portal to all federal, state and local government web resources and services.